Overview Statistics Trail Chart Weather Telemetry Raw packets
 

This is the latest recevied weather packets stored in our database for station/object KD0TNH-13. If no packets are shown the sender has not sent any weather packets the latest 10 day(s).

<< 98 99 100 101 102 103 104 >>
Time Temp. Humidity Pressure Rain* Wind** Luminosity Snow
1787831750 17.22° C 93% 29.1 hPa 0 mm 2.68 m/s, 182° - -
1787831451 17.22° C 93% 29.1 hPa 0 mm 2.68 m/s, 184° - -
1787831148 17.22° C 93% 29.1 hPa 0 mm 2.68 m/s, 191° - -
1787830847 17.22° C 93% 29.1 hPa 0 mm 2.24 m/s, 186° - -
1787830546 17.78° C 93% 29.1 hPa 0 mm 2.68 m/s, 189° - -
1787830245 17.78° C 94% 29.1 hPa 0 mm 2.24 m/s, 187° - -
1787829944 17.78° C 94% 29.1 hPa 0 mm 2.68 m/s, 188° - -
1787829644 17.78° C 93% 29.1 hPa 0 mm 2.68 m/s, 183° - -
1787829343 17.78° C 93% 29.1 hPa 0 mm 2.24 m/s, 190° - -
1787829042 17.78° C 93% 29.1 hPa 0 mm 2.24 m/s, 185° - -
1787828742 17.78° C 93% 29.1 hPa 0 mm 2.24 m/s, 187° - -
1787828442 17.78° C 94% 29.1 hPa 0 mm 2.24 m/s, 187° - -
1787828141 17.78° C 93% 29.1 hPa 0 mm 2.24 m/s, 183° - -
1787827839 17.78° C 93% 29.1 hPa 0 mm 0.89 m/s, 189° - -
1787827539 17.78° C 94% 29.1 hPa 0 mm 1.34 m/s, 189° - -
1787827242 17.78° C 93% 29.1 hPa 0 mm 1.34 m/s, 186° - -
1787826938 17.78° C 93% 29.1 hPa 0 mm 1.34 m/s, 183° - -
1787826638 17.78° C 92% 29.1 hPa 0 mm 1.79 m/s, 186° - -
1787826337 18.33° C 92% 29.1 hPa 0 mm 1.34 m/s, 195° - -
1787826036 18.33° C 93% 29.1 hPa 0 mm 2.24 m/s, 189° - -
1787825735 18.33° C 93% 29.1 hPa 0 mm 1.34 m/s, 192° - -
1787825434 18.33° C 93% 29.1 hPa 0 mm 1.79 m/s, 178° - -
1787825134 18.33° C 93% 29.1 hPa 0 mm 1.34 m/s, 186° - -
1787824833 18.33° C 94% 29.1 hPa 0 mm 2.24 m/s, 182° - -
1787824533 18.33° C 95% 29.1 hPa 0 mm 1.79 m/s, 180° - -

* Rain latest hour (hover to see other rain measurements)
** Current wind speed in m/s (hover to see current wind gust speed)